Regional Weather Roundup
Issued by NWS Goodland, KS

Home | Current Version | Previous Version | Text Only | Print | Product List | Glossary On
Versions: 1 2 3 4 5 6 7 8 9 10 11 12 13 14 15 16 17 18 19 20 21 22 23 24 25 26 27 28 29 30 31 32 33 34 35 36 37 38 39 40 41 42 43 44 45 46 47 48 49 50
000
ASUS43 KGLD 030108
RWRGLD

GOODLAND FORECAST AREA HOURLY WEATHER ROUNDUP
NATIONAL WEATHER SERVICE GOODLAND KS
600 PM MST FRI DEC 02 2016

...OFFICIAL OBSERVATIONS...

CITY           SKY/WX    TMP DP  RH WIND       PRES   REMARKS
GOODLAND KS    CLOUDY    34  17  50 NE6       30.23R
HILL CITY KS   CLEAR     30  20  66 E8        30.26S
IMPERIAL NEB   PTCLDY    31  22  69 CALM      30.23R
MCCOOK NEB     CLEAR     31  20  63 E3        30.25R
AKRON CO       CLOUDY    30  17  58 S6        30.20R
BURLINGTON CO  CLOUDY    37  19  48 E5        30.22R
LIMON CO       CLEAR     20  16  84 SE3       30.18S
$$

...UNOFFICIAL OBSERVATIONS...

CITY           SKY/WX    TMP DP  RH WIND       PRES   REMARKS
COLBY KS       MOCLDY    34  21  60 NE6       30.25S
NORTON KS      PTCLDY    30  18  59 CALM      30.26
SHARON SPRINGS   N/A     35  16  46 CALM        N/A
KIT CARSON CO    N/A     29  17  61 CALM        N/A
YUMA CO        MOCLDY    30  16  55 CALM      30.21S
$$




USA.gov is the U.S. government's official web portal to all federal, state and local government web resources and services.